Clarksburg, WV

10:52 AM EST on December 14, 2019 (GMT -0500)
Benedum

Weather History for KCKB - November, 2019

Change the Weather History Date:

Thursday, November 21, 2019

  Actual Average Record
Temperature  
Mean Temperature 68 °F -  
Max Temperature 109 °F 53 °F 77 °F (1931)
Min Temperature 28 °F 30 °F 11 °F (1951)
Cooling Degree Days 4    
Growing Degree Days 18 (Base 50)    
Moisture  
Dew Point 29 °F    
Average Humidity 41    
Maximum Humidity 81    
Minimum Humidity 5    
Precipitation  
Precipitation 0.00 in - - ()
Sea Level Pressure  
Sea Level Pressure 30.10 in    
Wind  
Wind Speed 7 mph ()    
Max Wind Speed 16 mph    
Max Gust Speed 22 mph    
Visibility 9.4 miles    
Events Rain    
Averages and records for this station are not official NWS values.
T = Trace of Precipitation, MM = Missing Value Source: Averaged Metar Reports

Daily Weather History Graph

Daily Weather History Graph

Search for Another Location

Airport or City:

Astronomy

Nov. 21, 2019 Rise Set
Actual Time 7:10 AM EST 5:02 PM EST
Civil Twilight 6:41 AM EST 5:31 PM EST
Nautical Twilight 6:09 AM EST 6:04 PM EST
Astronomical Twilight 5:37 AM EST 6:35 PM EST
Moon 1:07 AM EST (11/21) 2:28 PM EST (11/21)
Length of Visible Light 10h 49m
Length of Day
9h 51m
Waning Crescent, 30% of the Moon is Illuminated
Nov 21
Waning Crescent
Nov 26
New
Dec 4
First Quarter
Dec 12
Full
Dec 18
Last Quarter

Hourly Weather History & Observations

Time (EST) Temp. Dew Point Humidity Pressure Visibility Wind Dir Wind Speed Gust Speed Precip Events Conditions
12:53 AM - - N/A% 30.28 in - North - - N/A   Unknown
2:53 AM - - N/A% 30.26 in - North - - N/A   Unknown
3:53 AM - - N/A% 30.25 in - North - - N/A   Unknown
5:53 AM 28.0 °F 23.0 °F 81% 30.25 in - North - - N/A   Unknown
6:53 AM 28.0 °F 23.0 °F 81% 30.27 in - North - - N/A   Unknown
7:53 AM 109.0 °F 23.0 °F 5% 30.19 in 10.0 mi North - - N/A   Clear
9:53 AM 43.0 °F 34.0 °F 71% 30.21 in - North - - N/A   Unknown
10:53 AM 48.9 °F 35.1 °F 59% 30.17 in - North - - N/A   Unknown
11:53 AM 53.1 °F 32.0 °F 45% 30.14 in - North - - N/A   Unknown
12:53 PM 55.9 °F 30.9 °F 39% 30.10 in - North - - N/A   Unknown
1:53 PM 55.9 °F 30.0 °F 37% 30.08 in 10.0 mi SW 4.6 mph - N/A   Unknown
2:53 PM 57.9 °F 28.9 °F 33% 30.06 in 10.0 mi SW 4.6 mph - N/A   Clear
3:12 PM 60.1 °F 28.0 °F 30% 30.05 in 2.0 mi SSW 8.1 mph - N/A   Haze
3:22 PM 59.0 °F 28.9 °F 32% 30.04 in 10.0 mi Variable 6.9 mph - N/A   Clear
3:53 PM 60.1 °F 27.0 °F 28% 30.03 in 10.0 mi SSW 9.2 mph - N/A   Scattered Clouds
4:53 PM 59.0 °F 25.0 °F 27% 30.01 in 10.0 mi South 5.8 mph - N/A   Overcast
5:53 PM 57.9 °F 25.0 °F 28% 30.01 in 10.0 mi SW 8.1 mph - N/A   Overcast
6:53 PM 59.0 °F 27.0 °F 29% 30.01 in 10.0 mi SSW 9.2 mph - 0.00 in Rain Light Rain
7:53 PM 59.0 °F 28.9 °F 32% 29.94 in 10.0 mi SW 16.1 mph 20.7 mph 0.00 in   Overcast
8:53 PM 59.0 °F 30.9 °F 35% 29.98 in 10.0 mi SW 12.7 mph 19.6 mph N/A   Overcast
9:53 PM 59.0 °F 30.0 °F 33% 29.97 in 10.0 mi SW 9.2 mph - 0.00 in   Overcast
10:53 PM 60.1 °F 36.0 °F 41% 29.95 in 10.0 mi WSW 11.5 mph - N/A   Overcast
11:53 PM 59.0 °F 39.0 °F 48% 29.96 in 10.0 mi WSW 12.7 mph 21.9 mph N/A   Overcast